Location: Izdebno
(52.6670°N, 16.2170°E)
Time: 05:21:01
(UTC+02:00)

A-11 Canister half - Pass Details

Date: 14 February 2023
Orbit: 1526 x 1682 km, 47.3° (Epoch: 25 March)

Event Time Altitude Azimuth Distance (km) Brightness Sun altitude
Rises 10:11:07 0° 285° (WNW) 4,691 11.1 19.5°
Reaches altitude 10° 10:15:24 10° 268° (W) 3,719 10.8 19.9°
Maximum altitude 10:21:03 18° 230° (SW) 3,154 10.9 20.3°
Drops below altitude 10° 10:26:47 10° 192° (SSW) 3,770 12.0 20.7°
Sets 10:31:13 0° 175° (S) 4,780 12.8 21.0°
